User: anonymous   Login
Location: Unspecified
(0.0000°N, 0.0000°E)
Time: 01:01:59
(UTC+00:00)
Language:

STARLINK-31239 - Orbit

View from above orbital plane
View from above orbital plane
View from above satellite
View from above satellite

Ground track
Ground track

The orbit is defined by the following mean orbital elements,

1 60093U          26145.11473541 +.00000000 +00000-0 -46958-5 0 00003
2 60093  53.1608  42.4116 0001231  81.3478 278.7662 15.30196812    03
Epoch (UTC): 25 May 2026 02:45:13
Eccentricity: 0.0001231
inclination: 53.1608°
perigee height: 474 km
apogee height: 476 km
right ascension of ascending node: 42.4116°
argument of perigee: 81.3478°
revolutions per day: 15.30196812
mean anomaly at epoch: 278.7662°

The dashed part of the orbit path shows where the satellite is in the earth's shadow,  

DLR